Weather past 2 weeks in Port-aux-Francais, French Southern Territories

Now
35 °F

Chilly.


Feels Like: 24 °F
Forecast: 37 / 41 °F
Wind: 20 mph from West

Location: Port-Aux-Francais Iles Kerguelen

Current Time: Apr 27, 2015 at 10:34:30 AM

Latest Report: Apr 27, 2015 at 9:00 AM


Visibility: N/A

Pressure: 29.95 "Hg

Humidity: 71%

Dew point: 27 °F

Location of Port-aux-FrancaisLocation

Historic Weather in Port-aux-Francais — Graph

°F

Port-aux-Francais temperature yesterday

Maximum temperature yesterday: 38 °F (at 10:00 AM)
Minimum temperature yesterday: 31 °F (at 10:00 PM)
Average temperature yesterday: 35 °F

Past Weeks' High & Low Weather Summary

 TemperatureHumidityPressure
High53 °F (Apr 20, 2:00 PM)93% (Apr 22, 6:00 AM)30.22 "Hg (Apr 22, 6:00 AM)
Low29 °F (Apr 16, 7:00 AM)49% (Apr 24, 2:00 PM)29.12 "Hg (Apr 14, 7:00 PM)
Average42 °F74%29.67 "Hg
* Reported Apr 12 9:00 AM — Apr 27 9:00 AM, Port-aux-Francais, Weather by CustomWeather, © 2015

Note: Actual official high and low records may vary slightly from our data, if they occured in-between our weather recording intervals... More about our weather records

Advertising

Port-aux-Francais weather history for previous 24 hours

 ConditionsComfort  
Time TempWeatherWind HumidityBarometerVisibility
9:00 AM
Mon, Apr 27
35 °FChilly.20 mph71%29.95 "HgN/A
8:00 AM33 °FChilly.12 mph75%29.95 "HgN/A
7:00 AM33 °FChilly.13 mph78%29.95 "HgN/A
6:00 AM35 °FChilly.24 mph75%29.94 "HgN/A
5:00 AM35 °FChilly.31 mph66%29.92 "HgN/A
4:00 AM35 °FChilly.30 mph75%29.91 "HgN/A
3:00 AM34 °FChilly.32 mph77%29.90 "HgN/A
2:00 AM34 °FChilly.24 mph81%29.90 "HgN/A
1:00 AM33 °FChilly.18 mph91%29.89 "HgN/A
12:00 AM31 °FChilly.21 mph93%29.87 "HgN/A
11:00 PM
Sun, Apr 26
31 °FChilly.17 mph93%29.86 "HgN/A
10:00 PM31 °FChilly.12 mph92%29.85 "HgN/A
9:00 PM33 °FChilly.13 mph80%29.84 "HgN/A
8:00 PM34 °FChilly.15 mph77%29.81 "HgN/A
7:00 PM34 °FChilly.14 mph71%29.80 "HgN/A
6:00 PM33 °FChilly.12 mph87%29.78 "HgN/A
5:00 PM35 °FChilly.12 mph69%29.75 "HgN/A
4:00 PM34 °FChilly.23 mph80%29.74 "HgN/A
3:00 PM37 °FChilly.13 mph59%29.72 "HgN/A
2:00 PM35 °FChilly.22 mph75%29.72 "HgN/A
1:00 PM36 °FChilly.18 mph64%29.70 "HgN/A
12:00 PM37 °FChilly.16 mph60%29.70 "HgN/A
11:00 AM38 °FChilly.16 mph57%29.70 "HgN/A
10:00 AM38 °FChilly.16 mph55%29.68 "HgN/A
Weather by CustomWeather, © 2015

See weather overviewHow to use our weather pages